Change the Weather History Date:

Monday, February 24, 2014

  Actual Average Record
Temperature  
Mean Temperature 62 °F -  
Max Temperature 73 °F 63 °F 77 °F (2011)
Min Temperature 50 °F 38 °F 27 °F (2009)
Degree Days  
Heating Degree Days 3    
Growing Degree Days 12 (Base 50)    
Moisture  
Dew Point 42 °F    
Average Humidity 53    
Maximum Humidity 94    
Minimum Humidity 29    
Precipitation  
Precipitation 0.00 in - - ()
Sea Level Pressure  
Sea Level Pressure 30.05 in    
Wind  
Wind Speed 3 mph (NW)    
Max Wind Speed 10 mph    
Max Gust Speed -    
Visibility 9 miles    
Events      
Averages and records for this station are not official NWS values.
T = Trace of Precipitation, MM = Missing Value Source: NWS Daily Summary

Daily Weather History Graph

Daily Weather History Graph

Search for Another Location

Airport or City:

Trip Planner

Search our weather history database for the weather conditions in past years. The results will help you decide how hot, cold, wet, or windy it might be!

Date:

Astronomy

Feb. 24, 2014 Rise Set
Actual Time 7:13 AM EST 6:33 PM EST
Civil Twilight 6:48 AM EST 6:58 PM EST
Nautical Twilight 6:19 AM EST 7:26 PM EST
Astronomical Twilight 5:51 AM EST 7:55 PM EST
Moon 3:00 AM EST (2/24) 1:44 PM EST (2/24)
Length of Visible Light 12h 09m
Length of Day
11h 20m
Waning Crescent, 28% of the Moon is Illuminated
Feb 24
Waning Crescent
Mar 1
New
Mar 8
First Quarter
Mar 16
Full
Mar 23
Last Quarter

Hourly Weather History & Observations

Time (EST) Temp. Dew Point Humidity Pressure Visibility Wind Dir Wind Speed Gust Speed Precip Events Conditions
12:03 AM 57.2 °F - N/A% 30.01 in 2.5 mi Calm Calm - N/A   Overcast
12:18 AM 57.2 °F - N/A% 30.01 in 3.0 mi Calm Calm - N/A   Overcast
12:28 AM 57.2 °F - N/A% 30.01 in 7.0 mi NNW 2.3 mph - N/A   Overcast
12:43 AM 57.2 °F - N/A% 30.01 in 4.0 mi Calm Calm - N/A   Haze
12:48 AM 57.2 °F - N/A% 30.01 in 4.0 mi SSW 1.2 mph - N/A   Haze
12:53 AM 57.2 °F - N/A% 30.01 in 5.0 mi SW 1.2 mph - N/A   Haze
12:58 AM 57.2 °F - N/A% 30.02 in 7.0 mi WSW 3.5 mph - N/A   Overcast
1:03 AM 59.0 °F - N/A% 30.01 in 9.0 mi Calm Calm - N/A   Overcast
1:08 AM 59.0 °F - N/A% 30.01 in 10.0 mi Variable 3.5 mph - N/A   Overcast
1:23 AM 59.0 °F - N/A% 30.01 in 8.0 mi Calm Calm - N/A   Overcast
1:53 AM 59.0 °F - N/A% 30.01 in 9.0 mi West 3.5 mph - N/A   Overcast
1:58 AM 59.0 °F - N/A% 30.02 in 10.0 mi Variable 2.3 mph - N/A   Overcast
2:08 AM 59.0 °F - N/A% 30.01 in 9.0 mi WNW 2.3 mph - N/A   Overcast
2:38 AM 59.0 °F - N/A% 30.01 in 10.0 mi West 3.5 mph - N/A   Overcast
2:53 AM 59.0 °F - N/A% 30.00 in 8.0 mi West 4.6 mph - N/A   Overcast
2:58 AM 59.0 °F - N/A% 30.01 in 8.0 mi West 3.5 mph - N/A   Overcast
3:13 AM 59.0 °F - N/A% 30.00 in 10.0 mi NW 3.5 mph - N/A   Overcast
3:23 AM 59.0 °F - N/A% 30.00 in 10.0 mi NW 5.8 mph - N/A   Overcast
3:43 AM 59.0 °F - N/A% 30.00 in 10.0 mi NW 4.6 mph - N/A   Overcast
3:58 AM 59.0 °F - N/A% 30.01 in 10.0 mi WNW 5.8 mph - N/A   Overcast
4:08 AM 59.0 °F - N/A% 30.00 in 10.0 mi West 3.5 mph - N/A   Overcast
4:58 AM 57.2 °F - N/A% 30.02 in 10.0 mi NNW 2.3 mph - N/A   Overcast
5:13 AM 57.2 °F - N/A% 30.02 in 10.0 mi NW 4.6 mph - N/A   Overcast
5:38 AM 57.2 °F - N/A% 30.03 in 10.0 mi West 2.3 mph - N/A   Overcast
5:58 AM 57.2 °F 55.4 °F 94% 30.05 in 10.0 mi NW 5.8 mph - N/A   Overcast
6:58 AM 55.4 °F - N/A% 30.07 in 10.0 mi NNW 5.8 mph - N/A   Overcast
7:13 AM 53.6 °F - N/A% 30.07 in 10.0 mi North 3.5 mph - N/A   Scattered Clouds
7:57 AM 53.6 °F 50.0 °F 88% 30.10 in 10.0 mi North 6.9 mph - N/A   Clear
7:58 AM 53.6 °F 50.0 °F 88% 30.10 in 10.0 mi North 8.1 mph - N/A   Clear
8:58 AM 55.4 °F 46.4 °F 72% 30.13 in 10.0 mi NNW 9.2 mph - N/A   Scattered Clouds
9:58 AM 57.2 °F 46.4 °F 67% 30.13 in 10.0 mi North 6.9 mph - N/A   Clear
10:58 AM 60.8 °F 46.4 °F 59% 30.13 in 10.0 mi NNW 5.8 mph - N/A   Mostly Cloudy
11:58 AM 64.4 °F - N/A% 30.12 in 10.0 mi Variable 3.5 mph - N/A   Clear
12:58 PM 68.0 °F - N/A% 30.08 in 10.0 mi Variable 1.2 mph - N/A   Clear
12:59 PM 68.0 °F 42.8 °F 40% 30.08 in 10.0 mi Variable 1.2 mph - N/A   Mostly Cloudy
1:58 PM 69.8 °F 42.8 °F 38% 30.05 in 10.0 mi Variable 1.2 mph - N/A   Clear
2:58 PM 73.4 °F 42.8 °F 33% 30.04 in 10.0 mi East 3.5 mph - N/A   Clear
3:58 PM 73.4 °F 42.8 °F 33% 30.03 in 10.0 mi NNE 9.2 mph - N/A   Clear
4:58 PM 71.6 °F 37.4 °F 29% 30.04 in 10.0 mi North 10.4 mph - N/A   Clear
5:58 PM 68.0 °F 37.4 °F 33% 30.06 in 10.0 mi North 8.1 mph - N/A   Partly Cloudy
6:58 PM 60.8 °F 35.6 °F 39% 30.08 in 10.0 mi North 5.8 mph - N/A   Partly Cloudy
7:58 PM 64.4 °F 33.8 °F 32% 30.10 in 10.0 mi North 6.9 mph - N/A   Clear
8:58 PM 60.8 °F 33.8 °F 36% 30.10 in 10.0 mi NNE 1.2 mph - N/A   Clear
9:58 PM 55.4 °F 41.0 °F 58% 30.10 in 10.0 mi SE 2.3 mph - N/A   Partly Cloudy
10:58 PM 51.8 °F 37.4 °F 58% 30.11 in 10.0 mi Calm Calm - N/A   Clear
11:58 PM 50.0 °F 37.4 °F 62% 30.09 in 10.0 mi Calm Calm - N/A   Mostly Cloudy